SAA86 FYWH-FACT

Flight info

Callsign SAA86
Flight time 1h 38m
Altitude 38000
Route UVORI1B UVORI UN185 OKLOK UQ23 CSV UZ26 ERDAS ERDAS1A
Aircraft A320/M-SDE3FGHIRWY/LB1

Departure

Time 2026-05-04 15:21
Airport Hosea Kutako International Airport (FYWH)

Arrival

Time 2026-05-04 17:00
Airport Cape Town International Airport (FACT)
Time Latitude Longitude Altitude Speed Heading
2026-05-04 14:48 -22.48535 17.46450 5567 ft 0 kts 333°
2026-05-04 15:17 -22.48535 17.46449 5568 ft 0 kts 333°
2026-05-04 15:17 -22.48434 17.46420 5569 ft 15 kts 22°
2026-05-04 15:17 -22.48376 17.46521 5567 ft 17 kts 64°
2026-05-04 15:18 -22.48321 17.46644 5565 ft 19 kts 63°
2026-05-04 15:18 -22.48260 17.46776 5565 ft 20 kts 64°
2026-05-04 15:18 -22.48194 17.46919 5563 ft 22 kts 63°
2026-05-04 15:19 -22.48051 17.47231 5562 ft 24 kts 64°
2026-05-04 15:19 -22.47972 17.47404 5562 ft 27 kts 63°
2026-05-04 15:19 -22.47786 17.47809 5545 ft 31 kts 63°
2026-05-04 15:20 -22.47691 17.47920 5542 ft 15 kts 345°
2026-05-04 15:20 -22.47638 17.47863 5542 ft 7 kts 256°
2026-05-04 15:20 -22.47645 17.47847 5546 ft 0 kts 244°
2026-05-04 15:20 -22.47712 17.47701 5548 ft 61 kts 244°
2026-05-04 15:21 -22.48010 17.47050 5565 ft 131 kts 244°
2026-05-04 15:21 -22.48501 17.45982 5641 ft 180 kts 248°
2026-05-04 15:21 -22.49732 17.43494 7203 ft 202 kts 248°
2026-05-04 15:22 -22.50378 17.42062 7807 ft 220 kts 249°
2026-05-04 15:22 -22.51054 17.40544 8771 ft 225 kts 248°
2026-05-04 15:22 -22.52450 17.37445 10273 ft 232 kts 248°
2026-05-04 15:23 -22.53166 17.35868 10989 ft 235 kts 248°
2026-05-04 15:23 -22.54002 17.34320 11577 ft 249 kts 234°
2026-05-04 15:23 -22.55415 17.33090 11888 ft 280 kts 207°
2026-05-04 15:23 -22.57441 17.32808 12215 ft 312 kts 174°
2026-05-04 15:24 -22.61023 17.35594 13474 ft 335 kts 129°
2026-05-04 15:24 -22.63894 17.39619 14819 ft 341 kts 129°
2026-05-04 15:25 -22.65349 17.41662 15456 ft 344 kts 129°
2026-05-04 15:25 -22.66931 17.43618 16084 ft 347 kts 137°
2026-05-04 15:25 -22.68688 17.45362 16707 ft 349 kts 142°
2026-05-04 15:26 -22.72525 17.48653 17940 ft 355 kts 144°
2026-05-04 15:26 -22.74511 17.50267 18474 ft 360 kts 148°
2026-05-04 15:26 -22.79242 17.52446 18694 ft 385 kts 176°
2026-05-04 15:27 -22.81929 17.52664 19040 ft 389 kts 182°
2026-05-04 15:27 -22.87400 17.52867 20045 ft 398 kts 180°
2026-05-04 15:28 -22.92966 17.53573 21064 ft 407 kts 175°
2026-05-04 15:28 -22.95772 17.54105 21573 ft 412 kts 174°
2026-05-04 15:28 -23.01443 17.55285 22565 ft 418 kts 174°
2026-05-04 15:29 -23.04316 17.55874 23053 ft 421 kts 174°
2026-05-04 15:30 -23.16014 17.58085 24664 ft 435 kts 176°
2026-05-04 15:30 -23.25082 17.59776 25772 ft 446 kts 177°
2026-05-04 15:31 -23.31255 17.60878 26527 ft 453 kts 178°
2026-05-04 15:31 -23.34378 17.61406 26895 ft 456 kts 179°
2026-05-04 15:32 -23.43887 17.62994 27953 ft 466 kts 179°
2026-05-04 15:32 -23.50343 17.64095 28657 ft 473 kts 179°
2026-05-04 15:33 -23.56897 17.65223 29356 ft 480 kts 180°
2026-05-04 15:34 -23.66907 17.66938 30340 ft 491 kts 180°
2026-05-04 15:34 -23.70244 17.67510 30636 ft 494 kts 180°
2026-05-04 15:34 -23.77071 17.68690 31220 ft 500 kts 180°
2026-05-04 15:35 -23.83937 17.69884 32040 ft 500 kts 180°
2026-05-04 15:35 -23.87373 17.70474 32428 ft 500 kts 181°
2026-05-04 15:35 -23.90814 17.71063 32809 ft 501 kts 181°
2026-05-04 15:36 -23.97714 17.72243 33595 ft 503 kts 181°
2026-05-04 15:36 -24.01172 17.72836 33963 ft 504 kts 181°
2026-05-04 15:36 -24.04640 17.73439 34291 ft 505 kts 181°
2026-05-04 15:37 -24.08107 17.74045 34644 ft 504 kts 181°
2026-05-04 15:37 -24.11568 17.74651 35006 ft 504 kts 181°
2026-05-04 15:37 -24.15029 17.75254 35362 ft 503 kts 181°
2026-05-04 15:37 -24.18486 17.75855 35715 ft 503 kts 181°
2026-05-04 15:38 -24.21937 17.76455 36068 ft 502 kts 181°
2026-05-04 15:38 -24.25385 17.77053 36403 ft 501 kts 181°
2026-05-04 15:38 -24.28827 17.77647 36732 ft 501 kts 181°
2026-05-04 15:38 -24.32269 17.78244 37061 ft 500 kts 181°
2026-05-04 15:39 -24.35704 17.78839 37395 ft 500 kts 181°
2026-05-04 15:39 -24.39139 17.79433 37717 ft 499 kts 181°
2026-05-04 15:39 -24.46009 17.80625 37912 ft 500 kts 181°
2026-05-04 15:40 -24.49401 17.81217 37909 ft 500 kts 181°
2026-05-04 15:40 -24.56271 17.82415 37906 ft 500 kts 181°
2026-05-04 15:41 -24.63147 17.83622 37910 ft 500 kts 181°
2026-05-04 15:41 -24.70028 17.84834 37908 ft 501 kts 181°
2026-05-04 15:42 -24.76916 17.86037 37916 ft 501 kts 181°
2026-05-04 15:42 -24.83813 17.87231 37923 ft 502 kts 181°
2026-05-04 15:43 -24.90718 17.88438 37934 ft 503 kts 181°
2026-05-04 15:43 -24.97631 17.89658 37931 ft 503 kts 181°
2026-05-04 15:44 -25.04553 17.90881 37927 ft 504 kts 181°
2026-05-04 15:44 -25.11483 17.92106 37928 ft 504 kts 181°
2026-05-04 15:45 -25.18370 17.93318 37928 ft 505 kts 181°
2026-05-04 15:45 -25.25307 17.94534 37927 ft 505 kts 181°
2026-05-04 15:46 -25.32255 17.95764 37922 ft 506 kts 181°
2026-05-04 15:46 -25.39205 17.97004 37920 ft 506 kts 181°
2026-05-04 15:47 -25.46157 17.98236 37920 ft 506 kts 181°
2026-05-04 15:47 -25.53108 17.99462 37928 ft 506 kts 181°
2026-05-04 15:48 -25.60069 18.00692 37923 ft 506 kts 181°
2026-05-04 15:48 -25.70509 18.02548 37928 ft 507 kts 181°
2026-05-04 15:49 -25.77473 18.03792 37932 ft 507 kts 181°
2026-05-04 15:49 -25.84390 18.05028 37934 ft 507 kts 181°
2026-05-04 15:50 -25.91362 18.06269 37935 ft 507 kts 181°
2026-05-04 15:50 -25.98333 18.07512 37931 ft 507 kts 181°
2026-05-04 15:51 -26.05303 18.08759 37936 ft 507 kts 181°
2026-05-04 15:51 -26.12276 18.10012 37937 ft 507 kts 181°
2026-05-04 15:52 -26.18072 18.11045 37944 ft 507 kts 181°
2026-05-04 15:52 -26.26223 18.12506 37953 ft 507 kts 181°
2026-05-04 15:53 -26.33189 18.13757 37958 ft 507 kts 180°
2026-05-04 15:53 -26.38975 18.14802 37967 ft 507 kts 180°
2026-05-04 15:54 -26.47112 18.16272 37974 ft 506 kts 180°
2026-05-04 15:54 -26.52893 18.17312 37977 ft 506 kts 180°
2026-05-04 15:55 -26.60965 18.18758 37992 ft 505 kts 180°
2026-05-04 15:55 -26.66781 18.19807 37991 ft 505 kts 180°
2026-05-04 15:56 -26.74849 18.21268 37997 ft 505 kts 180°
2026-05-04 15:56 -26.80618 18.22315 38002 ft 505 kts 180°
2026-05-04 15:57 -26.88737 18.23794 38001 ft 506 kts 180°
2026-05-04 15:57 -26.95691 18.25052 38001 ft 506 kts 181°
2026-05-04 15:58 -27.01471 18.26102 38003 ft 506 kts 180°
2026-05-04 15:58 -27.08421 18.27378 38006 ft 506 kts 180°
2026-05-04 15:59 -27.15373 18.28651 38013 ft 506 kts 180°
2026-05-04 15:59 -27.22320 18.29915 38021 ft 506 kts 181°
2026-05-04 16:00 -27.29272 18.31182 38028 ft 506 kts 181°
2026-05-04 16:00 -27.36230 18.32450 38036 ft 506 kts 181°
2026-05-04 16:01 -27.43179 18.33723 38043 ft 506 kts 181°
2026-05-04 16:01 -27.50122 18.34999 38045 ft 506 kts 181°
2026-05-04 16:02 -27.57073 18.36273 38053 ft 506 kts 181°
2026-05-04 16:03 -27.67493 18.38190 38054 ft 506 kts 181°
2026-05-04 16:03 -27.74440 18.39474 38056 ft 506 kts 181°
2026-05-04 16:04 -27.81392 18.40754 38054 ft 506 kts 181°
2026-05-04 16:04 -27.91781 18.42664 38049 ft 507 kts 181°
2026-05-04 16:05 -27.98735 18.43946 38008 ft 506 kts 181°
2026-05-04 16:06 -28.09148 18.45869 38011 ft 505 kts 181°
2026-05-04 16:07 -28.23017 18.48457 38005 ft 505 kts 181°
2026-05-04 16:08 -28.36876 18.51048 38018 ft 505 kts 181°
2026-05-04 16:09 -28.54218 18.54294 38032 ft 505 kts 181°
2026-05-04 16:10 -28.68093 18.56883 38028 ft 505 kts 181°
2026-05-04 16:11 -28.81962 18.59504 38022 ft 505 kts 181°
2026-05-04 16:12 -29.02759 18.63425 38028 ft 507 kts 181°
2026-05-04 16:13 -29.16690 18.66054 38045 ft 508 kts 180°
2026-05-04 16:14 -29.30639 18.68707 38050 ft 509 kts 180°
2026-05-04 16:16 -29.48121 18.72037 38044 ft 510 kts 180°
2026-05-04 16:17 -29.65615 18.75363 38051 ft 510 kts 180°
2026-05-04 16:18 -29.79566 18.78050 38055 ft 510 kts 180°
2026-05-04 16:19 -29.97064 18.81406 38060 ft 510 kts 179°
2026-05-04 16:20 -30.14555 18.84783 38064 ft 510 kts 179°
2026-05-04 16:22 -30.32039 18.88172 38059 ft 510 kts 179°
2026-05-04 16:23 -30.52961 18.92239 38078 ft 509 kts 178°
2026-05-04 16:25 -30.73876 18.96317 38077 ft 507 kts 179°
2026-05-04 16:26 -30.98198 19.01054 38091 ft 505 kts 178°
2026-05-04 16:28 -31.15522 19.04476 38078 ft 504 kts 178°
2026-05-04 16:29 -31.39663 19.09247 38090 ft 503 kts 178°
2026-05-04 16:31 -31.56885 19.12681 38072 ft 501 kts 178°
2026-05-04 16:32 -31.77511 19.16801 38074 ft 501 kts 178°
2026-05-04 16:33 -31.91275 19.19553 38073 ft 502 kts 178°
2026-05-04 16:34 -32.01592 19.21629 38063 ft 501 kts 178°
2026-05-04 16:35 -32.22219 19.25803 38313 ft 503 kts 178°
2026-05-04 16:36 -32.25678 19.26500 38081 ft 506 kts 178°
2026-05-04 16:36 -32.32588 19.27900 38019 ft 504 kts 177°
2026-05-04 16:37 -32.39444 19.29295 37123 ft 510 kts 178°
2026-05-04 16:37 -32.42947 19.30007 36585 ft 510 kts 178°
2026-05-04 16:37 -32.49884 19.31422 35626 ft 508 kts 178°
2026-05-04 16:38 -32.56826 19.32831 34717 ft 504 kts 178°
2026-05-04 16:39 -32.67151 19.34933 33235 ft 498 kts 178°
2026-05-04 16:39 -32.73936 19.36333 32404 ft 491 kts 178°
2026-05-04 16:40 -32.80627 19.37705 31597 ft 484 kts 178°
2026-05-04 16:40 -32.87231 19.38793 30856 ft 474 kts 182°
2026-05-04 16:41 -32.93744 19.39580 30107 ft 467 kts 183°
2026-05-04 16:41 -33.03365 19.40783 28836 ft 459 kts 182°
2026-05-04 16:42 -33.11756 19.41958 27746 ft 452 kts 181°
2026-05-04 16:43 -33.18964 19.42887 26827 ft 439 kts 189°
2026-05-04 16:43 -33.24617 19.41524 26050 ft 396 kts 217°
2026-05-04 16:43 -33.26953 19.39959 25660 ft 375 kts 230°
2026-05-04 16:44 -33.32834 19.32041 24171 ft 340 kts 246°
2026-05-04 16:45 -33.35702 19.27581 23361 ft 336 kts 247°
2026-05-04 16:46 -33.39943 19.20991 22014 ft 330 kts 245°
2026-05-04 16:46 -33.43711 19.16299 21071 ft 340 kts 233°
2026-05-04 16:47 -33.46674 19.13238 20445 ft 337 kts 233°
2026-05-04 16:47 -33.50200 19.09595 19688 ft 333 kts 232°
2026-05-04 16:48 -33.55948 19.03621 18551 ft 326 kts 231°
2026-05-04 16:48 -33.57652 19.01844 18200 ft 324 kts 231°
2026-05-04 16:49 -33.60452 18.98923 17589 ft 320 kts 230°
2026-05-04 16:49 -33.63814 18.95410 16862 ft 315 kts 230°
2026-05-04 16:50 -33.67092 18.91972 16151 ft 311 kts 229°
2026-05-04 16:50 -33.70296 18.88614 15289 ft 304 kts 228°
2026-05-04 16:51 -33.73396 18.85259 14080 ft 292 kts 236°
2026-05-04 16:51 -33.74390 18.83210 13477 ft 279 kts 255°
2026-05-04 16:51 -33.74696 18.78702 12102 ft 270 kts 272°
2026-05-04 16:52 -33.74671 18.74201 10807 ft 269 kts 272°
2026-05-04 16:52 -33.74663 18.71961 10188 ft 268 kts 272°
2026-05-04 16:53 -33.74647 18.67550 9118 ft 257 kts 271°
2026-05-04 16:53 -33.74617 18.61152 7325 ft 255 kts 271°
2026-05-04 16:54 -33.74604 18.59070 7009 ft 242 kts 271°
2026-05-04 16:55 -33.77886 18.53970 4988 ft 246 kts 163°
2026-05-04 16:55 -33.81113 18.55323 3827 ft 240 kts 168°
2026-05-04 16:56 -33.84197 18.56280 2772 ft 212 kts 168°
2026-05-04 16:56 -33.87879 18.57443 1960 ft 154 kts 168°
2026-05-04 16:57 -33.88884 18.57760 1729 ft 145 kts 168°
2026-05-04 16:57 -33.90783 18.58359 1316 ft 140 kts 167°
2026-05-04 16:58 -33.93619 18.59256 714 ft 140 kts 168°
2026-05-04 16:58 -33.94551 18.59551 516 ft 136 kts 168°
2026-05-04 16:59 -33.96361 18.60128 166 ft 127 kts 169°
2026-05-04 17:00 -33.97795 18.60548 154 ft 12 kts 240°
2026-05-04 17:00 -33.97709 18.60189 157 ft 15 kts 319°
2026-05-04 17:01 -33.97495 18.60085 157 ft 16 kts 339°
2026-05-04 17:01 -33.97249 18.60001 157 ft 18 kts 346°
2026-05-04 17:02 -33.97022 18.59938 157 ft 14 kts 344°
2026-05-04 17:02 -33.96988 18.59845 157 ft 3 kts 254°
2026-05-04 17:03 -33.96990 18.59833 157 ft 0 kts 254°